Tracking 21076 objects as of 10-Aug-2020
HD Live streaming from Space Station
objects crossing your sky now
Track the most recent launched group of Starlink satellites

DMSP 5D-2 F11 DEB

Track DMSP 5D-2 F11 DEB now!
10-day predictions


NORAD ID: 28330
Int'l Code: 1991-082AT
Perigee: 775.1 km
Apogee: 908.1 km
Inclination: 99.0 °
Period: 101.6 minutes
Semi major axis: 7212 km
RCS: 0.0098 m2 (small)
Launch date: November 28, 1991
Source: United States (US)
Launch site: AIR FORCE WESTERN TEST RANGE (AFWTR)

Note: This is SATELLITE DEBRIS
aabbcc
Your satellite tracking list
Your tracking list is empty




NASA's NSSDC Master Catalog

Two Line Element Set (TLE):
1 28330U 91082AT  20223.20972110 +.00000651 +00000-0 +33053-3 0  9996
2 28330 099.0175 217.1831 0092199 163.1179 197.3098 14.17309406836010
Source of the keplerian elements: AFSPC